Weather History for LHPP - November, 2012

Change the Weather History Date:

Monday, November 5, 2012

  Actual Average Record
Temperature  
Mean Temperature 55 °F -  
Max Temperature 66 °F 46 °F - ()
Min Temperature 44 °F 35 °F - ()
Degree Days  
Heating Degree Days 10    
Growing Degree Days 5 (Base 50)    
Moisture  
Dew Point 47 °F    
Average Humidity 84    
Maximum Humidity 94    
Minimum Humidity 68    
Precipitation  
Precipitation 0.91 in 0.07 in - ()
Sea Level Pressure  
Sea Level Pressure 29.61 in    
Wind  
Wind Speed 10 mph ()    
Max Wind Speed 17 mph    
Max Gust Speed 39 mph    
Visibility 5.9 miles    
Events Rain    
T = Trace of Precipitation, MM = Missing Value Source: Averaged Metar Reports

Daily Weather History Graph

Daily Weather History Graph

Search for Another Location

Airport or City:

Trip Planner

Search our weather history database for the weather conditions in past years. The results will help you decide how hot, cold, wet, or windy it might be!

Date:

Astronomy

Nov. 05, 2012 Rise Set
Actual Time 6:33 AM CET 4:27 PM CET
Civil Twilight 6:01 AM CET 4:58 PM CET
Nautical Twilight 5:26 AM CET 5:34 PM CET
Astronomical Twilight 4:51 AM CET 6:09 PM CET
Moon 9:46 PM CET (11/5) 11:44 AM CET (11/5)
Length of Visible Light 10h 56m
Length of Day
9h 53m
Waning Gibbous, 65% of the Moon is Illuminated
Nov 5
Waning Gibbous
Nov 7
Last Quarter
Nov 13
New
Nov 20
First Quarter
Nov 28
Full

Hourly Weather History & Observations

Time (CET) Temp. Windchill Dew Point Humidity Pressure Visibility Wind Dir Wind Speed Gust Speed Precip Events Conditions
12:45 AM 55.4 °F - 50.0 °F 82% 29.68 in - SSE 5.8 mph - N/A   Clear
1:00 AM 56 °F - 49 °F 72% 29.68 in 19 mi SSE 6.7 mph - -   Partly Cloudy
1:45 AM 59.0 °F - 50.0 °F 72% 29.65 in - ESE 9.2 mph - N/A   Clear
2:45 AM 60.8 °F - 51.8 °F 72% 29.62 in - SE 10.4 mph - N/A   Clear
3:45 AM 59.0 °F - 51.8 °F 77% 29.59 in - ESE 10.4 mph - N/A   Clear
4:45 AM 59.0 °F - 51.8 °F 77% 29.56 in 6.2 mi SE 9.2 mph - N/A   Overcast
5:15 AM 59.0 °F - 51.8 °F 77% 29.56 in 6.2 mi SE 9.2 mph - N/A   Overcast
5:45 AM 59.0 °F - 51.8 °F 77% 29.53 in 6.2 mi SE 9.2 mph - N/A   Overcast
6:00 AM - - - N/A% - 6.2 mi South 12.7 mph - N/A   Overcast
6:15 AM 59.0 °F - 51.8 °F 77% 29.53 in 6.2 mi SSE 11.5 mph - N/A   Mostly Cloudy
6:45 AM 59.0 °F - 51.8 °F 77% 29.53 in 6.2 mi SE 11.5 mph - N/A   Mostly Cloudy
7:00 AM 59 °F - 52 °F 71% 29.52 in 31 mi SE 11.2 mph - -   Partly Cloudy
7:15 AM 59.0 °F - 51.8 °F 77% 29.53 in 6.2 mi SE 11.5 mph - N/A   Mostly Cloudy
7:45 AM 59.0 °F - 53.6 °F 82% 29.50 in 6.2 mi SE 8.1 mph - N/A   Mostly Cloudy
8:15 AM 60.8 °F - 53.6 °F 77% 29.50 in 6.2 mi SSE 8.1 mph - N/A   Mostly Cloudy
8:45 AM 64.4 °F - 55.4 °F 73% 29.50 in - South 8.1 mph - N/A   Clear
9:00 AM - - - N/A% - 6.2 mi South 13.8 mph - N/A   Overcast
9:15 AM 66.2 °F - 55.4 °F 68% 29.47 in - South 13.8 mph - N/A   Clear
9:45 AM 64.4 °F - 55.4 °F 73% 29.47 in - SSW 12.7 mph - N/A   Clear
10:15 AM 64.4 °F - 55.4 °F 73% 29.47 in - SSW 10.4 mph - N/A   Clear
11:15 AM 64.4 °F - 53.6 °F 68% 29.47 in 6.2 mi NNW 13.8 mph 26.5 mph N/A Rain Light Rain
11:21 AM 55.4 °F - 51.8 °F 88% 29.50 in - NNW 13.8 mph - N/A   Unknown
11:23 AM - - - N/A% - - North - - N/A Rain Light Rain
11:45 AM 51.8 °F - 48.2 °F 88% 29.50 in 6.2 mi North 12.7 mph - N/A Rain Light Rain
11:54 AM 50.0 °F - 48.2 °F 94% 29.53 in - North 16.1 mph 39.1 mph N/A   Unknown
12:00 PM - - - N/A% - 5.0 mi North 17.3 mph 28.8 mph N/A Rain Light Rain
12:15 PM 50.0 °F - 46.4 °F 87% 29.53 in 5.0 mi North 12.7 mph - N/A Rain Light Rain
12:41 PM 48.2 °F - 46.4 °F 93% 29.56 in 3.7 mi North 11.5 mph - N/A Rain Rain
12:45 PM 48.2 °F - 46.4 °F 93% 29.53 in 3.7 mi North 11.5 mph - N/A Rain Rain
1:00 PM 49 °F - 46 °F 87% 29.56 in 4 mi North 11.2 mph - - Rain Rain
1:15 PM 46.4 °F 39.5 °F 44.6 °F 93% 29.53 in 3.7 mi North 17.3 mph - N/A Rain Rain
1:38 PM 46.4 °F 41.5 °F 44.6 °F 93% 29.56 in 5.0 mi North 10.4 mph - N/A Rain Light Rain
1:45 PM 46.4 °F 41.9 °F 44.6 °F 93% 29.56 in 5.0 mi North 9.2 mph - N/A Rain Light Rain
2:15 PM 46.4 °F 39.8 °F 42.8 °F 87% 29.56 in 6.2 mi North 16.1 mph - N/A Rain Light Rain
2:45 PM 46.4 °F 41.1 °F 44.6 °F 93% 29.59 in 5.0 mi North 11.5 mph - N/A Rain Light Rain
3:00 PM - - - N/A% - 5.0 mi North 17.3 mph 28.8 mph N/A Rain Light Rain
3:15 PM 46.4 °F 41.1 °F 42.8 °F 87% 29.59 in 6.2 mi North 11.5 mph 26.5 mph N/A Rain Light Rain
3:45 PM 46.4 °F 41.9 °F 42.8 °F 87% 29.62 in 4.3 mi NNW 9.2 mph - N/A Rain Light Rain
4:15 PM 46.4 °F 41.1 °F 42.8 °F 87% 29.62 in 4.3 mi NNW 11.5 mph - N/A Rain Light Rain
4:45 PM 46.4 °F 41.1 °F 42.8 °F 87% 29.65 in 4.3 mi NW 11.5 mph - N/A Rain Light Rain
5:15 PM 46.4 °F 41.5 °F 42.8 °F 87% 29.65 in 4.3 mi NW 10.4 mph - N/A Rain Light Rain
5:45 PM 46.4 °F 40.4 °F 42.8 °F 87% 29.68 in 4.3 mi NW 13.8 mph - N/A Rain Light Rain
6:15 PM 46.4 °F 41.5 °F 42.8 °F 87% 29.71 in 6.2 mi WNW 10.4 mph - N/A Rain Light Rain
6:25 PM 46.4 °F 42.4 °F 42.8 °F 87% 29.74 in 6.2 mi WNW 8.1 mph - N/A   Overcast
6:45 PM 46.4 °F 42.4 °F 42.8 °F 87% 29.71 in 6.2 mi West 8.1 mph - N/A   Overcast
7:00 PM 46 °F - 42 °F 83% 29.73 in 9 mi West 6.7 mph - - Rain Light Rain
7:15 PM 46.4 °F 40.7 °F 42.8 °F 87% 29.74 in 6.2 mi WNW 12.7 mph - N/A   Mostly Cloudy
7:45 PM 46.4 °F 40.7 °F 42.8 °F 87% 29.74 in 6.2 mi WNW 12.7 mph - N/A   Mostly Cloudy
8:15 PM 44.6 °F 39.7 °F 42.8 °F 93% 29.77 in 6.2 mi West 9.2 mph - N/A   Mostly Cloudy
8:45 PM 44.6 °F 39.2 °F 42.8 °F 93% 29.77 in 6.2 mi West 10.4 mph - N/A   Mostly Cloudy
9:45 PM 44.6 °F 39.7 °F 42.8 °F 93% 29.80 in - West 9.2 mph - N/A   Clear
10:45 PM 44.6 °F 38.1 °F 42.8 °F 93% 29.83 in - West 13.8 mph - N/A   Clear
11:45 PM 44.6 °F 39.2 °F 42.8 °F 93% 29.86 in 6.2 mi West 10.4 mph - N/A   Mostly Cloudy